Goldsboro, NC

12:19 AM EDT on June 20, 2018 (GMT -0400)
Seymour Johnson Air Force Base

Weather History for KGSB - January, 2016

Change the Weather History Date:

Friday, January 1, 2016

  Actual Average Record
Temperature  
Mean Temperature 52 °F -  
Max Temperature 59 °F 53 °F 68 °F (2000)
Min Temperature 46 °F 34 °F 17 °F (2018)
Degree Days  
Heating Degree Days 12    
Growing Degree Days 2 (Base 50)    
Moisture  
Dew Point 43 °F    
Average Humidity 78    
Maximum Humidity 87    
Minimum Humidity 67    
Precipitation  
Precipitation 0.00 in - - ()
Sea Level Pressure  
Sea Level Pressure 30.11 in    
Wind  
Wind Speed 6 mph (NNW)    
Max Wind Speed 12 mph    
Max Gust Speed -    
Visibility 10 miles    
Events      
Averages and records for this station are not official NWS values.
T = Trace of Precipitation, MM = Missing Value Source: NWS Daily Summary

Daily Weather History Graph

Daily Weather History Graph

Search for Another Location

Airport or City:

Astronomy

Jan. 01, 2016 Rise Set
Actual Time 7:20 AM EST 5:09 PM EST
Civil Twilight 6:52 AM EST 5:38 PM EST
Nautical Twilight 6:20 AM EST 6:09 PM EST
Astronomical Twilight 5:49 AM EST 6:40 PM EST
Moon No Moon Rise 11:44 AM EST (1/1)
Length of Visible Light 10h 45m
Length of Day
9h 49m
Waning Gibbous, 55% of the Moon is Illuminated
Jan 1
Waning Gibbous
Jan 2
Last Quarter
Jan 9
New
Jan 16
First Quarter
Jan 23
Full

Hourly Weather History & Observations

Time (EST) Temp. Windchill Dew Point Humidity Pressure Visibility Wind Dir Wind Speed Gust Speed Precip Events Conditions
12:10 AM 59.0 °F - - N/A% 30.07 in 10.0 mi North 2.3 mph - N/A   Overcast
12:31 AM 59.0 °F - - N/A% 30.07 in 10.0 mi North 5.8 mph - N/A   Overcast
12:49 AM 59.0 °F - - N/A% 30.06 in 10.0 mi North 5.8 mph - N/A   Overcast
12:55 AM 59.0 °F - - N/A% 30.06 in 10.0 mi NNW 8.1 mph - N/A   Overcast
12:58 AM 59.0 °F - - N/A% 30.08 in 10.0 mi NNW 9.2 mph - N/A   Overcast
1:13 AM 57.2 °F - - N/A% 30.07 in 10.0 mi NNW 8.1 mph - N/A   Overcast
1:37 AM 57.2 °F - - N/A% 30.07 in 10.0 mi North 5.8 mph - N/A   Overcast
1:58 AM 57.2 °F - - N/A% 30.09 in 10.0 mi NNW 11.5 mph - N/A   Overcast
2:04 AM 57.2 °F - - N/A% 30.07 in 10.0 mi NNW 10.4 mph - N/A   Overcast
2:07 AM 57.2 °F - - N/A% 30.08 in 10.0 mi NNW 9.2 mph - N/A   Overcast
2:16 AM 57.2 °F - - N/A% 30.08 in 10.0 mi North 10.4 mph - N/A   Overcast
3:58 AM 53.6 °F - 42.8 °F 67% 30.10 in 10.0 mi North 8.1 mph - N/A   Overcast
4:58 AM 51.8 °F - 42.8 °F 71% 30.10 in 10.0 mi NNW 8.1 mph - N/A   Overcast
5:58 AM 50.0 °F - 42.8 °F 76% 30.11 in 10.0 mi NNW 6.9 mph - N/A   Overcast
6:58 AM 50.0 °F - 42.8 °F 76% 30.12 in 10.0 mi North 4.6 mph - N/A   Scattered Clouds
7:58 AM 50.0 °F - 42.8 °F 76% 30.13 in 10.0 mi NW 5.8 mph - N/A   Overcast
8:58 AM 50.0 °F - 42.8 °F 76% 30.14 in 10.0 mi NNW 8.1 mph - N/A   Mostly Cloudy
9:58 AM 50.0 °F - 44.6 °F 82% 30.15 in 10.0 mi NNW 11.5 mph - N/A   Mostly Cloudy
10:58 AM 50.0 °F - 46.4 °F 87% 30.16 in 10.0 mi NNW 8.1 mph - N/A   Scattered Clouds
11:58 AM 51.8 °F - 46.4 °F 82% 30.13 in 10.0 mi NW 6.9 mph - N/A   Partly Cloudy
12:58 PM 51.8 °F - 46.4 °F 82% 30.11 in 10.0 mi NNW 10.4 mph - N/A   Mostly Cloudy
1:58 PM 51.8 °F - 46.4 °F 82% 30.10 in 10.0 mi NW 8.1 mph - N/A   Scattered Clouds
5:58 PM 50.0 °F - 42.8 °F 76% 30.13 in 10.0 mi NW 3.5 mph - 0.00 in   Clear
6:58 PM 50.0 °F - 42.8 °F 76% 30.14 in 10.0 mi NNW 2.3 mph - N/A   Mostly Cloudy
7:58 PM 48.2 °F - 42.8 °F 82% 30.15 in 10.0 mi NNW 3.5 mph - N/A   Scattered Clouds
8:58 PM 48.2 °F - 41.0 °F 76% 30.15 in 10.0 mi NNW 3.5 mph - N/A   Clear
9:58 PM 48.2 °F - 41.0 °F 76% 30.15 in 10.0 mi NW 2.3 mph - N/A   Scattered Clouds
10:58 PM 46.4 °F - 41.0 °F 81% 30.16 in 10.0 mi NW 2.3 mph - N/A   Clear
11:58 PM 46.4 °F 45.2 °F 41.0 °F 81% 30.17 in 10.0 mi NW 3.5 mph - N/A   Clear